When you browse on this site, cookies collect data to enhance your experience and personalize the content and advertising you see.
Visit our Privacy Policy to learn more. By continuing to use the site, you agree to this use of cookies and data.
  • en France
  • Liste des pays
  • À 7 jours
  • Température de l'eau
  • Carte satellitaire
  • Carte météo
  • Widgets météo
  • user-avatar
    Se connecter

    Météo par heure à Burnie

    Ce jour, 23 Mai, Jeudi

    Heure Température Précipitation Vent Pression Humidité
    00:00 +9°C° 0 mm 2 m/s 759 mmHg 96%
    01:00 +9°C° 0 mm 2 m/s 759 mmHg 97%
    02:00 +9°C° 0 mm 2 m/s 759 mmHg 97%
    03:00 +8°C° 0 mm 2 m/s 758 mmHg 97%
    04:00 +8°C° 0 mm 2 m/s 758 mmHg 97%
    05:00 +8°C° 0 mm 2 m/s 758 mmHg 97%
    06:00 +8°C° 0 mm 2 m/s 758 mmHg 97%
    07:00 +8°C° 0 mm 2 m/s 758 mmHg 97%
    08:00 +11°C° 0 mm 1 m/s 758 mmHg 92%
    09:00 +12°C° 0 mm 1 m/s 758 mmHg 86%
    10:00 +14°C° 0 mm 2 m/s 758 mmHg 82%
    11:00 +15°C° 0 mm 2 m/s 757 mmHg 78%
    12:00 +15°C° 0 mm 2 m/s 756 mmHg 75%
    13:00 +16°C° 0 mm 3 m/s 756 mmHg 72%
    14:00 +16°C° 0 mm 3 m/s 755 mmHg 74%
    15:00 +14°C° 0 mm 4 m/s 755 mmHg 77%
    16:00 +14°C° 0 mm 3 m/s 754 mmHg 81%
    17:00 +13°C° 0 mm 3 m/s 754 mmHg 86%
    18:00 +12°C° 0 mm 3 m/s 754 mmHg 91%
    19:00 +11°C° 0 mm 3 m/s 754 mmHg 97%
    20:00 +10°C° 0 mm 2 m/s 754 mmHg 97%
    21:00 +10°C° 0 mm 2 m/s 754 mmHg 97%
    22:00 +10°C° 0 mm 2 m/s 753 mmHg 97%
    23:00 +11°C° 0 mm 1 m/s 753 mmHg 97%

    Demain, 24 Mai, Vendredi

    Heure Température Précipitation Vent Pression Humidité
    00:00 +11°C° 0 mm 1 m/s 753 mmHg 97%
    01:00 +11°C° 0 mm 1 m/s 753 mmHg 98%
    02:00 +10°C° 0 mm 1 m/s 752 mmHg 98%
    03:00 +10°C° 0 mm 1 m/s 752 mmHg 98%
    04:00 +10°C° 0 mm 1 m/s 752 mmHg 98%
    05:00 +9°C° 0 mm 1 m/s 752 mmHg 98%
    06:00 +9°C° 0 mm 1 m/s 752 mmHg 97%
    07:00 +9°C° 0 mm 1 m/s 751 mmHg 97%
    08:00 +10°C° 0.1 mm 1 m/s 751 mmHg 96%
    09:00 +11°C° 0.1 mm 1 m/s 751 mmHg 94%
    10:00 +12°C° 0.1 mm 1 m/s 751 mmHg 93%
    11:00 +12°C° 0.1 mm 2 m/s 751 mmHg 93%
    12:00 +13°C° 0.1 mm 2 m/s 750 mmHg 93%
    13:00 +12°C° 0.1 mm 3 m/s 749 mmHg 93%
    14:00 +12°C° 0.2 mm 3 m/s 749 mmHg 94%
    15:00 +12°C° 0.2 mm 4 m/s 748 mmHg 94%
    16:00 +13°C° 0.2 mm 4 m/s 748 mmHg 95%
    17:00 +13°C° 0.5 mm 4 m/s 747 mmHg 96%
    18:00 +13°C° 0.5 mm 5 m/s 747 mmHg 96%
    19:00 +13°C° 0.5 mm 5 m/s 746 mmHg 97%
    20:00 +13°C° 0.6 mm 6 m/s 747 mmHg 96%
    21:00 +13°C° 0.6 mm 6 m/s 747 mmHg 96%
    22:00 +12°C° 0.6 mm 7 m/s 747 mmHg 96%
    23:00 +11°C° 0 mm 6 m/s 747 mmHg 94%

    Après-demain, 25 Mai, Samedi

    Heure Température Précipitation Vent Pression Humidité
    00:00 +11°C° 0 mm 6 m/s 747 mmHg 93%
    01:00 +10°C° 0 mm 6 m/s 747 mmHg 91%
    02:00 +10°C° 0 mm 6 m/s 747 mmHg 92%
    03:00 +10°C° 0 mm 5 m/s 747 mmHg 92%
    04:00 +10°C° 0 mm 5 m/s 746 mmHg 93%
    05:00 +10°C° 0.5 mm 6 m/s 746 mmHg 93%
    06:00 +11°C° 0.5 mm 7 m/s 746 mmHg 93%
    07:00 +11°C° 0.5 mm 8 m/s 746 mmHg 93%
    08:00 +11°C° 0.2 mm 7 m/s 746 mmHg 91%
    09:00 +11°C° 0.2 mm 7 m/s 746 mmHg 90%
    10:00 +11°C° 0.2 mm 6 m/s 746 mmHg 89%
    11:00 +11°C° 0.1 mm 7 m/s 746 mmHg 84%
    12:00 +11°C° 0.1 mm 7 m/s 745 mmHg 79%
    13:00 +12°C° 0.1 mm 7 m/s 745 mmHg 74%
    14:00 +11°C° 0.1 mm 7 m/s 745 mmHg 73%
    15:00 +11°C° 0.1 mm 7 m/s 745 mmHg 72%
    16:00 +10°C° 0.1 mm 7 m/s 745 mmHg 71%
    17:00 +10°C° 0 mm 7 m/s 745 mmHg 75%
    18:00 +9°C° 0 mm 7 m/s 745 mmHg 78%
    19:00 +9°C° 0 mm 7 m/s 746 mmHg 81%
    20:00 +8°C° 0 mm 7 m/s 746 mmHg 80%
    21:00 +8°C° 0 mm 7 m/s 746 mmHg 80%
    22:00 +7°C° 0 mm 6 m/s 746 mmHg 80%
    23:00 +6°C° 0 mm 7 m/s 745 mmHg 80%

    26 Mai, Dimanche

    Heure Température Précipitation Vent Pression Humidité
    00:00 +6°C° 0 mm 7 m/s 745 mmHg 80%
    01:00 +6°C° 0 mm 7 m/s 745 mmHg 80%
    02:00 +6°C° 0 mm 7 m/s 745 mmHg 79%
    03:00 +6°C° 0 mm 7 m/s 745 mmHg 79%
    04:00 +6°C° 0 mm 7 m/s 745 mmHg 79%
    05:00 +6°C° 0 mm 7 m/s 745 mmHg 80%
    06:00 +6°C° 0 mm 7 m/s 744 mmHg 81%
    07:00 +6°C° 0 mm 7 m/s 744 mmHg 82%
    08:00 +6°C° 1 mm 7 m/s 744 mmHg 85%
    09:00 +6°C° 1 mm 8 m/s 744 mmHg 89%
    10:00 +7°C° 1 mm 9 m/s 743 mmHg 92%
    11:00 +7°C° 0.4 mm 9 m/s 743 mmHg 89%
    12:00 +7°C° 0.4 mm 9 m/s 742 mmHg 85%
    13:00 +7°C° 0.4 mm 9 m/s 742 mmHg 82%
    14:00 +7°C° 0.7 mm 9 m/s 741 mmHg 84%
    15:00 +7°C° 0.7 mm 10 m/s 741 mmHg 85%
    16:00 +6°C° 0.7 mm 10 m/s 740 mmHg 87%
    17:00 +6°C° 0.1 mm 10 m/s 741 mmHg 85%
    18:00 +5°C° 0.1 mm 10 m/s 741 mmHg 83%
    19:00 +3°C° 0.1 mm 10 m/s 741 mmHg 81%
    20:00 +3°C° 0 mm 9 m/s 742 mmHg 79%
    21:00 +5°C° 0 mm 9 m/s 743 mmHg 78%
    22:00 +5°C° 0 mm 8 m/s 743 mmHg 77%
    23:00 +4°C° 0 mm 8 m/s 744 mmHg 76%

    27 Mai, Lundi

    Heure Température Précipitation Vent Pression Humidité
    00:00 +4°C° 0 mm 8 m/s 744 mmHg 75%
    01:00 +4°C° 0 mm 8 m/s 744 mmHg 74%
    02:00 +4°C° 0 mm 8 m/s 745 mmHg 73%
    03:00 +4°C° 0 mm 8 m/s 745 mmHg 73%
    04:00 +4°C° 0 mm 8 m/s 745 mmHg 72%
    05:00 +4°C° 0 mm 8 m/s 746 mmHg 73%
    06:00 +4°C° 0 mm 8 m/s 747 mmHg 73%
    07:00 +4°C° 0 mm 7 m/s 747 mmHg 73%
    08:00 +5°C° 0 mm 7 m/s 748 mmHg 71%
    09:00 +6°C° 0 mm 7 m/s 748 mmHg 69%
    10:00 +8°C° 0 mm 7 m/s 748 mmHg 67%
    11:00 +9°C° 0 mm 7 m/s 748 mmHg 66%
    12:00 +9°C° 0 mm 7 m/s 747 mmHg 64%
    13:00 +10°C° 0 mm 7 m/s 747 mmHg 63%
    14:00 +9°C° 0 mm 7 m/s 747 mmHg 68%
    15:00 +9°C° 0 mm 7 m/s 746 mmHg 74%
    16:00 +9°C° 0 mm 7 m/s 746 mmHg 79%
    17:00 +9°C° 0.2 mm 8 m/s 746 mmHg 81%
    18:00 +9°C° 0.2 mm 8 m/s 746 mmHg 84%
    19:00 +8°C° 0.2 mm 9 m/s 746 mmHg 86%
    20:00 +8°C° 0.1 mm 9 m/s 745 mmHg 85%
    21:00 +8°C° 0.1 mm 9 m/s 745 mmHg 84%
    22:00 +8°C° 0.1 mm 9 m/s 744 mmHg 83%
    23:00 +10°C° 0.2 mm 9 m/s 744 mmHg 82%

    28 Mai, Mardi

    Heure Température Précipitation Vent Pression Humidité
    00:00 +9°C° 0.2 mm 10 m/s 743 mmHg 82%
    01:00 +9°C° 0.2 mm 10 m/s 742 mmHg 82%
    02:00 +9°C° 0.1 mm 10 m/s 741 mmHg 81%
    03:00 +9°C° 0.1 mm 10 m/s 740 mmHg 80%
    04:00 +9°C° 0.1 mm 11 m/s 740 mmHg 80%
    05:00 +9°C° 0.2 mm 11 m/s 740 mmHg 79%
    06:00 +9°C° 0.2 mm 11 m/s 739 mmHg 78%
    07:00 +9°C° 0.2 mm 11 m/s 739 mmHg 77%
    08:00 +8°C° 0.2 mm 11 m/s 739 mmHg 75%
    09:00 +8°C° 0.2 mm 11 m/s 739 mmHg 73%
    10:00 +7°C° 0.2 mm 11 m/s 739 mmHg 72%
    11:00 +7°C° 0.2 mm 11 m/s 739 mmHg 71%
    12:00 +5°C° 0.2 mm 12 m/s 739 mmHg 71%
    13:00 +5°C° 0.2 mm 12 m/s 738 mmHg 71%
    14:00 +4°C° 0.3 mm 12 m/s 738 mmHg 71%
    15:00 +4°C° 0.3 mm 11 m/s 738 mmHg 72%
    16:00 +3°C° 0.3 mm 11 m/s 738 mmHg 72%
    17:00 +3°C° 0 mm 10 m/s 739 mmHg 71%
    18:00 +3°C° 0 mm 10 m/s 739 mmHg 70%
    19:00 +3°C° 0 mm 10 m/s 739 mmHg 69%
    20:00 +3°C° 0 mm 10 m/s 739 mmHg 69%
    21:00 +3°C° 0 mm 10 m/s 740 mmHg 69%
    22:00 +3°C° 0 mm 10 m/s 740 mmHg 69%
    23:00 +3°C° 0.1 mm 10 m/s 740 mmHg 69%
    Voir plus